Home > Time Zones > World Clock > Weather > Iran > Kerman > Past weeks

Flag for Iran Weather past 2 weeks in Kerman, Iran

Now
81 °F

Sunny.


Feels Like: 79 °F
Forecast: 61 / 90 °F
Wind: 7 mph from East

Location: Kerman Airport

Current Time: Oct 1, 2014 at 9:44:34 AM

Latest Report: Oct 1, 2014 at 9:00 AM


Visibility: 10 mi

Pressure: 30.27 "Hg

Humidity: 16%

Dew point: 30 °F

Location of KermanLocation

Historic Weather in Kerman — Graph

°F

Kerman temperature yesterday

Maximum temperature yesterday: 91 °F (at 3:30 PM)
Minimum temperature yesterday: 59 °F (at 5:30 AM)
Average temperature yesterday: 77 °F

Past Weeks' High & Low Weather Summary

 TemperatureHumidityPressure
High95 °F (Sep 22, 3:00 PM)36% (Sep 27, 5:30 AM)30.27 "Hg (Sep 27, 5:30 AM)
Low52 °F (Sep 24, 4:30 AM)4% (Sep 24, 2:30 PM)29.77 "Hg (Sep 16, 6:00 PM)
Average79 °F14%30.11 "Hg
* Reported Sep 16 9:30 AM — Oct 1 8:30 AM, Kerman, Weather by CustomWeather, © 2014

Note: Actual official high and low records may vary slightly from our data, if they occured in-between our weather recording intervals... More about our weather records

Advertising

Kerman weather history for previous 24 hours

 ConditionsComfort  
Time TempWeatherWind HumidityBarometerVisibility
8:30 AM
Oct 1
79 °FSunny.5 mph17%30.27 "Hg10 mi
7:30 AM68 °FPassing clouds.5 mph23%30.27 "HgN/A
6:30 AM63 °FPassing clouds.5 mph25%30.24 "HgN/A
5:30 AM55 °FClear.5 mph33%30.24 "Hg10 mi
4:30 AM59 °FClear.9 mph29%30.21 "Hg10 mi
3:30 AM63 °FClear.7 mph25%30.21 "Hg10 mi
2:30 AM61 °FClear.5 mph27%30.21 "Hg10 mi
1:30 AM64 °FClear.5 mph22%30.21 "Hg10 mi
12:30 AM68 °FClear.5 mph21%30.21 "Hg10 mi
11:30 PM
Sep 30
70 °FClear.7 mph20%30.21 "Hg10 mi
10:30 PM68 °FClear.5 mph21%30.24 "Hg10 mi
9:30 PM72 °FPassing clouds.5 mph19%30.24 "HgN/A
8:30 PM75 °FPassing clouds.5 mph16%30.21 "HgN/A
7:30 PM81 °FPassing clouds.9 mph13%30.21 "HgN/A
6:30 PM82 °FPassing clouds.7 mph13%30.18 "HgN/A
5:30 PM86 °FPassing clouds.12 mph11%30.15 "HgN/A
5:00 PM88 °FPassing clouds.7 mph10%30.15 "HgN/A
4:30 PM88 °FPassing clouds.9 mph9%30.15 "HgN/A
4:00 PM91 °FScattered clouds.7 mph8%30.15 "HgN/A
3:30 PM91 °FScattered clouds.7 mph8%30.15 "HgN/A
2:30 PM90 °FScattered clouds.9 mph9%30.15 "HgN/A
1:30 PM90 °FPassing clouds.No wind9%30.18 "HgN/A
1:00 PM88 °FPassing clouds.5 mph9%30.18 "HgN/A
12:30 PM88 °FPassing clouds.7 mph11%30.21 "HgN/A
12:00 PM90 °FPassing clouds.5 mph9%30.21 "HgN/A
11:30 AM86 °FPassing clouds.7 mph11%30.24 "HgN/A
11:00 AM86 °FPassing clouds.No wind11%30.24 "HgN/A
10:30 AM86 °FPassing clouds.5 mph12%30.24 "HgN/A
9:30 AM82 °FPassing clouds.5 mph15%30.27 "HgN/A
9:00 AM79 °FPassing clouds.5 mph17%30.27 "HgN/A
Weather by CustomWeather, © 2014

See weather overviewHow to use our weather pages